AXM1902 VRMM-FSIA

Flight info

Callsign AXM1902
Flight time N/A
Altitude 36000
Route ESKOL1A ESKOL G465 OTKIR/N0443F370 UM307 ORLOM/N0441F360 DCT TIBUL T146 DULMA DULMA1D
Aircraft A320/M-SDE3FGHIRWY/LB1

Departure

Time 2026-04-30 12:56
Airport Velana International Airport (VRMM)

Arrival

Time N/A
Airport Seychelles International Airport (FSIA)
Time Latitude Longitude Altitude Speed Heading
2026-04-30 12:17 4.18799 73.52789 14 ft 0 kts 269°
2026-04-30 12:42 4.18799 73.52790 12 ft 2 kts 269°
2026-04-30 12:42 4.18799 73.52815 13 ft 4 kts 269°
2026-04-30 12:43 4.18801 73.52836 16 ft 4 kts 242°
2026-04-30 12:43 4.18818 73.52850 14 ft 4 kts 188°
2026-04-30 12:43 4.18835 73.52851 12 ft 0 kts 179°
2026-04-30 12:52 4.18811 73.52852 13 ft 7 kts 179°
2026-04-30 12:52 4.18769 73.52853 12 ft 5 kts 179°
2026-04-30 12:52 4.18737 73.52853 12 ft 4 kts 179°
2026-04-30 12:53 4.18690 73.52886 12 ft 10 kts 111°
2026-04-30 12:53 4.18646 73.52924 12 ft 8 kts 174°
2026-04-30 12:53 4.18597 73.52925 12 ft 6 kts 179°
2026-04-30 12:53 4.18555 73.52945 12 ft 14 kts 125°
2026-04-30 12:54 4.18554 73.53063 12 ft 16 kts 88°
2026-04-30 12:54 4.18602 73.53106 12 ft 9 kts 349°
2026-04-30 12:54 4.18657 73.53102 12 ft 7 kts
2026-04-30 12:54 4.18664 73.53102 12 ft 0 kts
2026-04-30 12:55 4.18874 73.53101 12 ft 66 kts 359°
2026-04-30 12:55 4.19547 73.53100 14 ft 125 kts
2026-04-30 12:55 4.20592 73.53098 17 ft 173 kts
2026-04-30 12:56 4.21822 73.53127 522 ft 174 kts
2026-04-30 12:56 4.23041 73.53151 1054 ft 175 kts 359°
2026-04-30 12:56 4.24267 73.53133 1482 ft 182 kts 354°
2026-04-30 12:56 4.25607 73.53110 1710 ft 204 kts 357°
2026-04-30 12:57 4.27099 73.53097 1985 ft 222 kts 358°
2026-04-30 12:57 4.28717 73.53089 2333 ft 240 kts 358°
2026-04-30 12:57 4.30400 73.52973 2910 ft 244 kts 342°
2026-04-30 12:57 4.31885 73.52229 3419 ft 249 kts 317°
2026-04-30 12:58 4.32892 73.50797 3852 ft 258 kts 287°
2026-04-30 12:58 4.33072 73.48983 4522 ft 263 kts 259°
2026-04-30 12:58 4.32370 73.47284 5207 ft 268 kts 238°
2026-04-30 12:58 4.31347 73.45709 5915 ft 271 kts 237°
2026-04-30 12:59 4.30304 73.44116 6588 ft 275 kts 236°
2026-04-30 12:59 4.29243 73.42498 7210 ft 280 kts 236°
2026-04-30 12:59 4.28187 73.40888 7884 ft 282 kts 236°
2026-04-30 12:59 4.27107 73.39236 8568 ft 285 kts 235°
2026-04-30 13:00 4.26017 73.37563 9202 ft 289 kts 236°
2026-04-30 13:00 4.24911 73.35862 9841 ft 293 kts 235°
2026-04-30 13:00 4.23771 73.34112 10131 ft 310 kts 235°
2026-04-30 13:00 4.22552 73.32244 10260 ft 331 kts 235°
2026-04-30 13:01 4.21266 73.30269 10582 ft 343 kts 235°
2026-04-30 13:01 4.19954 73.28253 11085 ft 348 kts 235°
2026-04-30 13:01 4.18625 73.26210 11646 ft 352 kts 236°
2026-04-30 13:01 4.17280 73.24144 12200 ft 356 kts 235°
2026-04-30 13:02 4.15924 73.22059 12758 ft 360 kts 235°
2026-04-30 13:02 4.14550 73.19942 13310 ft 364 kts 235°
2026-04-30 13:02 4.13165 73.17806 13830 ft 367 kts 236°
2026-04-30 13:02 4.11765 73.15649 14306 ft 371 kts 236°
2026-04-30 13:03 4.10352 73.13474 14777 ft 375 kts 235°
2026-04-30 13:03 4.08925 73.11282 15263 ft 378 kts 235°
2026-04-30 13:03 4.07484 73.09071 15746 ft 381 kts 236°
2026-04-30 13:03 4.06030 73.06836 16226 ft 384 kts 236°
2026-04-30 13:04 4.04569 73.04591 16695 ft 387 kts 236°
2026-04-30 13:04 4.03111 73.02352 17165 ft 390 kts 236°
2026-04-30 13:04 4.01603 73.00040 17632 ft 393 kts 236°
2026-04-30 13:04 4.00106 72.97743 18090 ft 396 kts 236°
2026-04-30 13:05 3.98594 72.95424 18492 ft 399 kts 236°
2026-04-30 13:05 3.97092 72.93119 18876 ft 402 kts 236°
2026-04-30 13:05 3.95558 72.90766 19278 ft 405 kts 235°
2026-04-30 13:06 3.92460 72.86015 20089 ft 410 kts 235°
2026-04-30 13:06 3.90897 72.83616 20500 ft 412 kts 235°
2026-04-30 13:06 3.89325 72.81202 20906 ft 415 kts 235°
2026-04-30 13:06 3.87746 72.78773 21312 ft 418 kts 235°
2026-04-30 13:07 3.86156 72.76330 21711 ft 420 kts 235°
2026-04-30 13:07 3.84553 72.73874 22107 ft 423 kts 235°
2026-04-30 13:07 3.82941 72.71402 22492 ft 425 kts 235°
2026-04-30 13:07 3.81320 72.68915 22870 ft 428 kts 235°
2026-04-30 13:08 3.79690 72.66413 23236 ft 430 kts 235°
2026-04-30 13:08 3.78050 72.63898 23575 ft 433 kts 235°
2026-04-30 13:08 3.76402 72.61370 23873 ft 435 kts 235°
2026-04-30 13:08 3.74748 72.58832 24180 ft 436 kts 235°
2026-04-30 13:09 3.73087 72.56286 24488 ft 438 kts 235°
2026-04-30 13:09 3.71416 72.53725 24784 ft 439 kts 235°
2026-04-30 13:09 3.69742 72.51164 25070 ft 441 kts 235°
2026-04-30 13:09 3.68628 72.49459 25262 ft 442 kts 235°
2026-04-30 13:10 3.66946 72.46876 25543 ft 444 kts 235°
2026-04-30 13:10 3.65259 72.44286 25819 ft 445 kts 235°
2026-04-30 13:10 3.63563 72.41684 26094 ft 447 kts 235°
2026-04-30 13:10 3.61864 72.39075 26358 ft 448 kts 235°
2026-04-30 13:11 3.60158 72.36457 26617 ft 450 kts 235°
2026-04-30 13:11 3.58445 72.33830 26874 ft 451 kts 235°
2026-04-30 13:11 3.56725 72.31195 27119 ft 453 kts 235°
2026-04-30 13:11 3.54998 72.28554 27371 ft 454 kts 235°
2026-04-30 13:12 3.53271 72.25909 27626 ft 455 kts 235°
2026-04-30 13:12 3.51531 72.23246 27868 ft 457 kts 236°
2026-04-30 13:12 3.49793 72.20585 28105 ft 458 kts 236°
2026-04-30 13:13 3.46289 72.15220 28566 ft 461 kts 236°
2026-04-30 13:13 3.44533 72.12523 28788 ft 463 kts 235°
2026-04-30 13:13 3.40998 72.07117 29224 ft 465 kts 235°
2026-04-30 13:14 3.39249 72.04386 29428 ft 467 kts 237°
2026-04-30 13:14 3.37602 72.01583 29633 ft 469 kts 240°
2026-04-30 13:14 3.34514 71.95816 30008 ft 471 kts 241°
2026-04-30 13:15 3.32991 71.92906 30166 ft 473 kts 241°
2026-04-30 13:15 3.29885 71.87095 30492 ft 474 kts 240°
2026-04-30 13:15 3.28302 71.84205 30726 ft 473 kts 240°
2026-04-30 13:16 3.26730 71.81365 30922 ft 473 kts 240°
2026-04-30 13:16 3.25134 71.78489 31121 ft 473 kts 239°
2026-04-30 13:16 3.23540 71.75609 31321 ft 473 kts 240°
2026-04-30 13:17 3.20359 71.69846 31724 ft 473 kts 240°
2026-04-30 13:17 3.18778 71.66967 31928 ft 473 kts 240°
2026-04-30 13:17 3.15613 71.61199 32330 ft 473 kts 240°
2026-04-30 13:18 3.14027 71.58313 32521 ft 473 kts 240°
2026-04-30 13:18 3.10855 71.52539 32908 ft 474 kts 240°
2026-04-30 13:18 3.09266 71.49650 33101 ft 474 kts 240°
2026-04-30 13:19 3.07675 71.46758 33290 ft 475 kts 240°
2026-04-30 13:19 3.06082 71.43865 33501 ft 475 kts 239°
2026-04-30 13:19 3.04489 71.40972 33701 ft 475 kts 239°
2026-04-30 13:19 3.02892 71.38078 33895 ft 475 kts 239°
2026-04-30 13:20 3.01296 71.35185 34068 ft 475 kts 239°
2026-04-30 13:20 2.99701 71.32285 34250 ft 475 kts 240°
2026-04-30 13:20 2.98113 71.29396 34432 ft 474 kts 240°
2026-04-30 13:20 2.96525 71.26506 34610 ft 474 kts 240°
2026-04-30 13:21 2.94939 71.23620 34784 ft 473 kts 240°
2026-04-30 13:21 2.93353 71.20743 34961 ft 473 kts 240°
2026-04-30 13:21 2.91767 71.17863 35130 ft 472 kts 240°
2026-04-30 13:22 2.88606 71.12115 35456 ft 471 kts 240°
2026-04-30 13:22 2.87028 71.09252 35659 ft 469 kts 240°
2026-04-30 13:22 2.83902 71.03591 35900 ft 467 kts 240°
2026-04-30 13:23 2.79216 70.95072 35911 ft 465 kts 240°
2026-04-30 13:24 2.72982 70.83750 35911 ft 464 kts 240°
2026-04-30 13:25 2.66749 70.72441 35913 ft 464 kts 240°
2026-04-30 13:26 2.58952 70.58309 35916 ft 464 kts 240°
2026-04-30 13:28 2.51156 70.44176 35926 ft 464 kts 240°
2026-04-30 13:28 2.46511 70.35746 35929 ft 463 kts 240°
2026-04-30 13:29 2.40293 70.24477 35909 ft 466 kts 240°
2026-04-30 13:31 2.32340 70.10070 35915 ft 479 kts 240°
2026-04-30 13:32 2.24229 69.95372 35912 ft 486 kts 240°
2026-04-30 13:33 2.17687 69.83516 35913 ft 488 kts 240°
2026-04-30 13:34 2.12754 69.74590 35913 ft 489 kts 241°
2026-04-30 13:35 2.06182 69.62680 35927 ft 489 kts 241°
2026-04-30 13:36 1.99595 69.50767 35929 ft 490 kts 241°
2026-04-30 13:36 1.94678 69.41872 35932 ft 490 kts 241°
2026-04-30 13:37 1.89730 69.32931 35930 ft 490 kts 241°
2026-04-30 13:38 1.84792 69.23980 35936 ft 490 kts 241°
2026-04-30 13:39 1.78349 69.11962 35943 ft 490 kts 244°
2026-04-30 13:40 1.73894 69.02752 35934 ft 491 kts 244°
2026-04-30 13:40 1.70875 68.96626 35939 ft 491 kts 243°
2026-04-30 13:41 1.67814 68.90518 35931 ft 492 kts 243°
2026-04-30 13:41 1.64754 68.84408 35932 ft 492 kts 243°
2026-04-30 13:42 1.61702 68.78288 35931 ft 492 kts 243°
2026-04-30 13:42 1.57129 68.69105 35942 ft 492 kts 243°
2026-04-30 13:43 1.54073 68.62986 35939 ft 492 kts 243°
2026-04-30 13:43 1.51044 68.56903 35945 ft 492 kts 243°
2026-04-30 13:44 1.47987 68.50783 35931 ft 492 kts 243°
2026-04-30 13:44 1.44928 68.44662 35940 ft 492 kts 243°
2026-04-30 13:45 1.40356 68.35462 35933 ft 493 kts 243°
2026-04-30 13:46 1.37301 68.29323 35929 ft 494 kts 243°
2026-04-30 13:46 1.34231 68.23183 35934 ft 494 kts 243°
2026-04-30 13:47 1.31163 68.17037 35936 ft 494 kts 243°
2026-04-30 13:47 1.28094 68.10889 35931 ft 495 kts 243°
2026-04-30 13:48 1.25018 68.04739 35934 ft 495 kts 243°
2026-04-30 13:48 1.21947 67.98582 35940 ft 495 kts 243°
2026-04-30 13:49 1.18881 67.92419 35933 ft 495 kts 243°
2026-04-30 13:49 1.15814 67.86264 35943 ft 495 kts 243°
2026-04-30 13:50 1.12736 67.80103 35930 ft 495 kts 243°
2026-04-30 13:50 1.08142 67.70913 35938 ft 495 kts 243°
2026-04-30 13:51 1.05068 67.64752 35941 ft 495 kts 243°
2026-04-30 13:51 1.01996 67.58594 35940 ft 495 kts 243°
2026-04-30 13:52 0.98919 67.52431 35928 ft 496 kts 243°
2026-04-30 13:52 0.95838 67.46263 35930 ft 496 kts 243°
2026-04-30 13:53 0.92754 67.40098 35945 ft 496 kts 243°
2026-04-30 13:53 0.89681 67.33930 35937 ft 496 kts 243°
2026-04-30 13:54 0.86606 67.27759 35939 ft 496 kts 243°
2026-04-30 13:54 0.83526 67.21592 35944 ft 496 kts 243°
2026-04-30 13:55 0.80442 67.15426 35943 ft 496 kts 243°
2026-04-30 13:55 0.77352 67.09259 35944 ft 496 kts 243°
2026-04-30 13:56 0.74277 67.03088 35938 ft 496 kts 243°
2026-04-30 13:56 0.71202 66.96918 35929 ft 496 kts 243°
2026-04-30 13:57 0.68119 66.90754 35941 ft 495 kts 243°
2026-04-30 13:57 0.65042 66.84600 35943 ft 495 kts 243°
2026-04-30 13:58 0.60428 66.75375 35943 ft 495 kts 243°
2026-04-30 13:59 0.57377 66.69263 35942 ft 494 kts 243°
2026-04-30 13:59 0.54310 66.63117 35941 ft 494 kts 243°
2026-04-30 14:00 0.51250 66.56973 35930 ft 494 kts 243°
2026-04-30 14:00 0.46644 66.47767 35940 ft 494 kts 243°
2026-04-30 14:01 0.44093 66.42666 35935 ft 494 kts 243°
2026-04-30 14:01 0.41021 66.36529 35926 ft 494 kts 243°
2026-04-30 14:02 0.37949 66.30393 35925 ft 494 kts 243°
2026-04-30 14:02 0.34887 66.24257 35922 ft 493 kts 243°
2026-04-30 14:03 0.31830 66.18113 35921 ft 493 kts 243°
2026-04-30 14:03 0.28766 66.11984 35925 ft 493 kts 243°
2026-04-30 14:04 0.25696 66.05856 35926 ft 493 kts 243°
2026-04-30 14:04 0.22630 65.99720 35924 ft 494 kts 243°
2026-04-30 14:05 0.19562 65.93582 35930 ft 494 kts 243°
2026-04-30 14:05 0.16518 65.87485 35928 ft 494 kts 244°
2026-04-30 14:06 0.11919 65.78277 35922 ft 493 kts 244°
2026-04-30 14:07 0.07324 65.69077 35935 ft 493 kts 244°
2026-04-30 14:08 0.02734 65.59871 35933 ft 494 kts 244°
2026-04-30 14:08 -0.01777 65.50634 35933 ft 493 kts 246°
2026-04-30 14:09 -0.04510 65.44350 35919 ft 492 kts 248°
2026-04-30 14:10 -0.08529 65.34961 35929 ft 492 kts 247°
2026-04-30 14:10 -0.11288 65.28705 35928 ft 492 kts 246°
2026-04-30 14:11 -0.14062 65.22461 35922 ft 492 kts 246°
2026-04-30 14:11 -0.16827 65.16221 35923 ft 491 kts 247°
2026-04-30 14:12 -0.19577 65.09970 35921 ft 491 kts 247°
2026-04-30 14:12 -0.22324 65.03724 35919 ft 491 kts 247°
2026-04-30 14:13 -0.25072 64.97475 35928 ft 491 kts 246°
2026-04-30 14:13 -0.27830 64.91230 35921 ft 491 kts 246°
2026-04-30 14:14 -0.30590 64.84982 35919 ft 491 kts 246°
2026-04-30 14:14 -0.33342 64.78727 35921 ft 492 kts 246°
2026-04-30 14:15 -0.36097 64.72480 35922 ft 492 kts 246°
2026-04-30 14:15 -0.38860 64.66222 35920 ft 492 kts 246°
2026-04-30 14:16 -0.41618 64.59968 35920 ft 492 kts 246°
2026-04-30 14:16 -0.44368 64.53714 35923 ft 492 kts 246°
2026-04-30 14:17 -0.47129 64.47461 35923 ft 492 kts 246°
2026-04-30 14:17 -0.49891 64.41206 35920 ft 492 kts 246°
2026-04-30 14:18 -0.52647 64.34955 35915 ft 492 kts 246°
2026-04-30 14:18 -0.56780 64.25568 35915 ft 492 kts 246°
2026-04-30 14:19 -0.60913 64.16184 35916 ft 492 kts 246°
2026-04-30 14:20 -0.63652 64.09963 35918 ft 492 kts 246°
2026-04-30 14:20 -0.67787 64.00576 35917 ft 492 kts 246°
2026-04-30 14:21 -0.70549 63.94314 35911 ft 493 kts 246°
2026-04-30 14:22 -0.74703 63.84897 35902 ft 494 kts 246°
2026-04-30 14:22 -0.78845 63.75468 35902 ft 495 kts 246°
2026-04-30 14:23 -0.84404 63.62887 35908 ft 495 kts 246°
2026-04-30 14:24 -0.88560 63.53447 35906 ft 495 kts 246°
2026-04-30 14:25 -0.94105 63.40856 35911 ft 495 kts 246°
2026-04-30 14:26 -0.98262 63.31409 35909 ft 495 kts 246°
2026-04-30 14:27 -1.02405 63.22007 35907 ft 495 kts 246°
2026-04-30 14:27 -1.05180 63.15701 35917 ft 495 kts 246°
2026-04-30 14:28 -1.09333 63.06253 35917 ft 495 kts 246°
2026-04-30 14:28 -1.12107 62.99952 35919 ft 495 kts 246°
2026-04-30 14:29 -1.17192 62.88428 35913 ft 495 kts 246°
2026-04-30 14:31 -1.24589 62.71630 35923 ft 494 kts 246°
2026-04-30 14:31 -1.28730 62.62192 35919 ft 494 kts 246°
2026-04-30 14:32 -1.32884 62.52769 35924 ft 494 kts 246°
2026-04-30 14:33 -1.35657 62.46488 35919 ft 494 kts 246°
2026-04-30 14:33 -1.39808 62.37050 35908 ft 495 kts 246°
2026-04-30 14:34 -1.42573 62.30756 35910 ft 495 kts 246°
2026-04-30 14:34 -1.45338 62.24452 35911 ft 495 kts 246°
2026-04-30 14:35 -1.49478 62.15030 35915 ft 496 kts 246°
2026-04-30 14:36 -1.52266 62.08718 35915 ft 497 kts 246°
2026-04-30 14:36 -1.55042 62.02397 35911 ft 497 kts 246°
2026-04-30 14:37 -1.57814 61.96067 35915 ft 497 kts 246°
2026-04-30 14:37 -1.60598 61.89751 35920 ft 497 kts 245°
2026-04-30 14:38 -1.63384 61.83424 35925 ft 497 kts 245°
2026-04-30 14:38 -1.66163 61.77088 35924 ft 498 kts 245°
2026-04-30 14:39 -1.68947 61.70761 35921 ft 497 kts 245°
2026-04-30 14:39 -1.71735 61.64435 35923 ft 497 kts 245°
2026-04-30 14:40 -1.75893 61.54951 35928 ft 496 kts 245°
2026-04-30 14:40 -1.78669 61.48628 35927 ft 496 kts 245°
2026-04-30 14:41 -1.81449 61.42310 35925 ft 496 kts 245°
2026-04-30 14:41 -1.84231 61.35996 35925 ft 496 kts 245°
2026-04-30 14:42 -1.87009 61.29679 35921 ft 497 kts 245°
2026-04-30 14:42 -1.89765 61.23396 35919 ft 497 kts 245°
2026-04-30 14:43 -1.92562 61.17023 35919 ft 497 kts 245°
2026-04-30 14:43 -1.95321 61.10735 35919 ft 498 kts 245°
2026-04-30 14:44 -1.98101 61.04403 35917 ft 498 kts 245°
2026-04-30 14:44 -2.00885 60.98057 35911 ft 498 kts 245°
2026-04-30 14:45 -2.03673 60.91715 35927 ft 498 kts 245°
2026-04-30 14:45 -2.06452 60.85379 35926 ft 498 kts 246°
2026-04-30 14:46 -2.09228 60.79044 35924 ft 497 kts 245°
2026-04-30 14:46 -2.11540 60.73781 35922 ft 498 kts 245°
2026-04-30 14:47 -2.14792 60.66360 35916 ft 499 kts 245°
2026-04-30 14:47 -2.17579 60.60009 35913 ft 499 kts 245°
2026-04-30 14:48 -2.20341 60.53696 35909 ft 484 kts 245°
2026-04-30 14:48 -2.22989 60.47639 35915 ft 471 kts 245°
2026-04-30 14:49 -2.25627 60.41643 35919 ft 471 kts 245°
2026-04-30 14:49 -2.28239 60.35686 35916 ft 471 kts 245°
2026-04-30 14:50 -2.32180 60.26690 35915 ft 471 kts 245°
2026-04-30 14:51 -2.36127 60.17699 35915 ft 471 kts 245°
2026-04-30 14:52 -2.40073 60.08689 35917 ft 472 kts 245°
2026-04-30 14:52 -2.43571 60.00678 35918 ft 472 kts 246°
2026-04-30 14:53 -2.47522 59.91657 35920 ft 472 kts 245°
2026-04-30 14:54 -2.52783 59.79629 35930 ft 472 kts 246°
2026-04-30 14:55 -2.56735 59.70614 35930 ft 472 kts 246°
2026-04-30 14:56 -2.61984 59.58598 35930 ft 471 kts 246°
2026-04-30 14:57 -2.65918 59.49571 35908 ft 473 kts 246°
2026-04-30 14:58 -2.71226 59.37504 35907 ft 475 kts 245°
2026-04-30 14:58 -2.75622 59.28665 35912 ft 476 kts 242°
2026-04-30 14:59 -2.78708 59.22755 35520 ft 484 kts 242°
2026-04-30 15:00 -2.83235 59.13860 35022 ft 475 kts 243°
2026-04-30 15:00 -2.86192 59.07959 34699 ft 474 kts 243°
2026-04-30 15:01 -2.89143 59.02080 34383 ft 472 kts 242°
2026-04-30 15:01 -2.90622 58.99144 34223 ft 472 kts 242°
2026-04-30 15:01 -2.93579 58.93296 33908 ft 471 kts 242°
2026-04-30 15:02 -2.95056 58.90381 33735 ft 470 kts 242°
2026-04-30 15:02 -2.96531 58.87470 33552 ft 468 kts 242°
2026-04-30 15:03 -3.00901 58.78800 33028 ft 463 kts 242°
2026-04-30 15:03 -3.03782 58.73073 32680 ft 459 kts 242°
2026-04-30 15:04 -3.06650 58.67389 32339 ft 456 kts 242°
2026-04-30 15:04 -3.10909 58.58946 31828 ft 451 kts 242°
2026-04-30 15:05 -3.15121 58.50591 31332 ft 446 kts 242°
2026-04-30 15:06 -3.17903 58.45076 31002 ft 441 kts 242°
2026-04-30 15:06 -3.20655 58.39622 30679 ft 438 kts 242°
2026-04-30 15:07 -3.23391 58.34196 30359 ft 435 kts 242°
2026-04-30 15:07 -3.26088 58.28829 30047 ft 428 kts 242°
2026-04-30 15:08 -3.28747 58.23541 29684 ft 423 kts 242°
2026-04-30 15:08 -3.32682 58.15733 29134 ft 418 kts 242°
2026-04-30 15:09 -3.35285 58.10559 28768 ft 415 kts 242°
2026-04-30 15:09 -3.37872 58.05416 28409 ft 412 kts 243°
2026-04-30 15:10 -3.40443 58.00315 28056 ft 409 kts 243°
2026-04-30 15:11 -3.45525 57.90214 27289 ft 403 kts 243°
2026-04-30 15:11 -3.48031 57.85228 26907 ft 399 kts 243°
2026-04-30 15:12 -3.51758 57.77816 26327 ft 395 kts 243°
2026-04-30 15:13 -3.54224 57.72917 25953 ft 393 kts 243°
2026-04-30 15:14 -3.59097 57.63228 25219 ft 387 kts 244°
2026-04-30 15:14 -3.62686 57.56078 24680 ft 383 kts 244°
2026-04-30 15:16 -3.68621 57.44270 23806 ft 376 kts 244°
2026-04-30 15:17 -3.73298 57.34972 23039 ft 371 kts 244°
2026-04-30 15:18 -3.79043 57.23511 22031 ft 365 kts 244°
2026-04-30 15:19 -3.82457 57.16721 21430 ft 362 kts 244°